Total_Precipitation_Accumulation
2.28 2.53 2.62 1.86 1.51 1.41 1.44 1.40 1.37 1.34 1.39 1.43 1.48 1.64 1.66 1.72 1.83 1.85 1.96 2.25 2.40 2.59 3.03 3.17 3.05 2.79 2.46 2.22 2.13 1.92 1.67 1.69 1.74 1.73 1.69 1.71 1.78 2.05 2.48 2.30 2.14 1.59 1.51
1.76 2.04 2.17 1.67 1.32 1.28 1.26 1.28 1.26 1.27 1.27 1.23 1.33 1.57 1.73 1.86 2.03 2.01 2.21 2.54 2.77 3.10 3.10 2.86 2.64 2.33 2.17 1.96 1.83 1.71 1.63 1.72 1.82 1.82 1.71 1.57 1.85 2.21 2.50 2.34 2.29 1.56 1.51
1.31 1.47 1.44 1.46 1.22 1.11 1.11 1.18 1.21 1.20 1.21 1.14 1.23 1.50 1.73 2.00 2.25 2.29 2.48 2.77 3.07 3.09 2.79 2.58 2.19 1.91 1.77 1.59 1.55 1.55 1.60 1.75 1.87 2.06 2.04 1.51 1.46 2.19 2.31 2.17 1.79 1.35 1.35
1.04 1.07 1.00 1.16 1.14 1.07 1.04 1.03 1.04 1.07 1.09 1.15 1.25 1.47 1.67 1.87 2.15 2.28 2.50 2.74 2.89 2.71 2.58 2.22 1.88 1.67 1.49 1.31 1.30 1.35 1.47 1.70 1.99 2.34 2.29 1.75 1.16 1.69 2.02 1.86 1.53 1.28 1.23
0.93 0.88 1.04 1.10 1.04 1.01 0.94 0.97 0.99 1.02 1.03 1.11 1.21 1.40 1.59 1.84 2.13 2.28 2.30 2.51 2.46 2.26 2.17 2.01 1.78 1.47 1.29 1.16 1.14 1.25 1.45 1.76 1.98 2.15 1.96 1.87 1.67 1.78 1.83 1.72 1.52 1.43 1.32
0.88 0.89 1.00 1.07 1.00 1.02 0.95 0.90 0.98 1.03 1.09 1.12 1.26 1.44 1.56 1.85 2.03 2.05 2.14 2.40 2.35 2.16 2.03 1.90 1.61 1.31 1.13 1.02 1.06 1.16 1.39 1.75 1.74 1.46 1.48 1.60 1.53 1.66 1.67 1.78 1.63 1.47 1.36
1.05 1.09 1.03 1.10 1.08 1.02 0.91 0.84 0.94 1.00 1.11 1.15 1.29 1.43 1.52 1.70 1.82 1.96 2.14 2.24 2.18 2.02 1.84 1.71 1.48 1.23 1.15 1.14 1.11 1.12 1.38 1.64 1.44 1.27 1.35 1.70 1.54 1.34 1.61 1.84 1.78 1.56 1.36
1.04 1.11 1.11 1.22 1.19 1.12 0.96 0.90 0.98 1.08 1.17 1.26 1.33 1.36 1.44 1.55 1.67 1.88 2.10 2.16 2.02 1.76 1.63 1.58 1.42 1.25 1.17 1.18 1.10 1.12 1.35 1.40 1.13 1.19 1.14 1.31 1.19 1.23 1.54 1.76 1.76 1.62 1.46
1.21 1.17 1.19 1.26 1.17 1.19 1.16 1.04 1.12 1.26 1.32 1.33 1.35 1.34 1.39 1.54 1.71 1.89 2.12 2.19 1.96 1.67 1.57 1.49 1.38 1.26 1.14 1.16 1.17 1.25 1.44 1.58 1.41 1.44 1.08 1.23 1.19 1.36 1.65 1.81 1.82 1.74 1.68
1.63 1.43 1.36 1.46 1.48 1.30 1.26 1.25 1.36 1.43 1.47 1.51 1.53 1.61 1.73 1.87 1.88 2.07 2.14 2.15 1.94 1.72 1.60 1.50 1.45 1.30 1.22 1.20 1.24 1.45 1.72 1.57 1.21 1.27 1.32 1.18 1.29 1.64 2.00 1.98 2.00 2.00 1.97
1.99 1.78 1.57 1.43 1.45 1.41 1.36 1.45 1.78 1.80 1.70 1.71 1.84 1.95 2.06 2.31 2.34 2.54 2.34 2.27 2.07 1.94 1.89 1.77 1.75 1.62 1.45 1.33 1.47 1.71 1.64 1.43 1.46 1.56 1.51 1.30 1.54 1.97 2.32 2.30 2.26 2.23 2.22
2.14 1.82 1.75 1.64 1.50 1.43 1.31 1.54 2.00 1.85 1.79 1.94 2.14 2.10 2.36 2.84 3.09 2.71 2.73 2.75 2.67 2.60 2.45 2.44 2.47 2.05 1.65 1.67 2.18 2.24 1.57 1.50 1.70 1.76 1.72 1.66 1.95 2.42 2.69 2.68 2.65 2.46 2.42
2.33 1.98 1.88 1.79 1.74 1.74 1.83 1.71 1.90 2.04 2.17 2.27 2.29 2.37 2.65 2.81 2.96 3.06 3.12 3.16 3.26 3.05 2.80 3.01 2.95 2.25 2.21 2.61 2.73 2.43 1.87 1.85 2.02 1.94 2.04 2.11 2.20 2.74 3.23 3.15 3.06 2.80 2.62
2.58 2.26 2.05 1.93 1.94 2.03 1.98 1.97 1.98 2.06 2.15 2.36 2.54 2.53 2.87 3.35 3.46 3.57 3.55 3.35 3.46 3.41 3.55 3.46 3.48 2.97 2.96 2.73 2.63 2.57 2.36 2.42 2.31 2.51 2.95 2.64 2.37 2.73 3.50 3.62 3.50 3.21 2.83
2.75 2.43 2.38 2.11 2.07 2.13 2.30 2.43 2.19 2.48 2.53 2.60 2.84 3.01 3.18 3.55 3.63 3.73 3.71 3.66 3.31 3.36 3.57 3.87 3.68 3.86 3.84 3.39 2.90 2.74 2.71 2.71 2.66 2.78 3.08 3.13 2.91 3.00 3.81 4.31 4.18 3.83 3.36
2.72 2.56 2.50 2.36 2.41 2.50 2.56 2.70 2.79 2.99 3.13 3.07 3.10 3.23 3.36 3.63 3.97 4.03 3.99 3.89 3.47 3.33 3.64 3.96 3.90 4.40 4.30 4.09 3.49 3.12 2.93 2.88 2.83 2.93 3.25 3.48 3.40 3.33 3.81 4.43 4.69 4.63 4.18
2.54 2.62 2.74 2.86 3.11 3.21 3.19 3.19 3.18 3.34 3.40 3.51 3.84 3.92 4.04 4.00 4.14 4.00 4.00 3.83 3.68 3.59 3.76 3.84 3.94 4.35 4.11 4.08 3.90 3.56 3.34 3.11 2.91 3.11 3.49 3.87 3.51 3.41 3.79 4.33 4.76 4.76 4.61
2.61 2.68 2.91 3.02 3.41 3.60 3.68 3.80 3.72 3.73 3.75 4.01 4.26 4.48 4.48 4.28 4.05 4.14 3.91 3.71 3.76 3.71 3.92 4.22 4.21 4.31 4.44 4.39 4.16 3.84 3.64 3.51 3.05 3.08 3.24 3.44 3.69 3.19 3.62 4.33 4.63 4.39 4.50
2.94 3.20 3.56 3.68 3.60 3.69 3.92 4.11 3.90 3.96 3.95 3.98 4.11 4.42 4.35 4.00 3.81 4.19 4.06 4.05 3.95 4.16 4.07 3.70 4.34 4.56 4.56 4.49 3.89 3.84 3.41 3.34 3.26 3.03 3.15 3.21 3.41 3.34 3.40 3.55 4.18 4.02 4.26
3.33 3.72 3.95 3.98 4.20 4.50 4.72 4.64 4.43 4.14 3.98 3.87 3.93 4.13 4.04 3.95 3.84 4.14 3.93 3.92 4.07 4.47 4.52 4.38 4.69 4.62 4.46 4.56 3.83 3.57 3.24 2.92 2.90 2.88 2.69 2.92 2.97 2.68 2.92 3.17 3.60 3.08 3.36
3.43 3.66 3.93 4.31 4.71 4.83 4.66 4.61 4.62 4.46 4.26 3.88 3.72 3.85 3.88 3.65 3.69 4.08 3.80 4.20 4.21 4.39 4.50 4.46 4.70 4.58 4.32 4.42 4.40 3.80 3.14 2.71 2.63 2.44 2.44 2.66 2.58 2.62 2.95 3.43 3.71 3.58 3.16
3.18 3.45 3.85 4.31 4.65 4.57 4.70 4.95 4.96 4.81 4.24 3.91 3.80 3.81 3.66 3.48 3.41 3.51 4.11 4.08 4.17 4.39 4.43 4.38 4.43 4.17 3.86 4.24 4.60 4.44 3.64 3.15 2.68 2.18 2.42 2.45 2.58 2.86 2.87 2.93 3.39 3.77 3.56
3.15 3.58 3.92 4.25 4.39 4.42 4.66 4.84 4.59 4.45 4.04 3.94 3.93 3.81 3.59 3.49 3.43 3.56 3.86 3.98 4.08 3.98 4.20 4.39 4.19 4.09 3.96 4.02 4.27 4.55 4.06 3.38 2.82 2.44 2.29 2.36 2.72 2.99 2.82 2.76 2.75 3.03 3.11
3.12 3.70 4.14 4.16 4.24 4.14 4.31 4.48 4.34 4.04 3.81 3.70 3.69 3.49 3.38 3.28 3.23 3.34 3.55 3.77 3.91 3.80 3.97 3.82 3.91 4.08 4.12 3.92 4.01 3.92 3.84 3.61 3.44 2.97 2.51 2.38 2.62 2.71 2.68 2.45 2.44 2.78 2.95
2.82 3.25 3.68 4.04 4.12 3.95 3.94 4.05 4.19 4.00 3.71 3.47 3.34 3.31 3.29 3.28 3.08 3.07 3.30 3.50 3.62 3.50 3.49 3.70 4.06 4.00 3.93 3.80 3.91 3.91 4.04 3.88 3.56 3.40 2.99 2.70 2.55 2.29 2.37 2.41 2.38 2.47 2.69
2.62 2.99 3.29 3.51 3.51 3.47 3.46 3.52 3.62 3.68 3.63 3.39 3.20 3.26 3.26 3.15 3.01 2.95 3.06 3.36 3.42 3.34 3.33 3.46 3.57 3.62 3.65 3.75 3.75 3.63 3.86 3.89 3.71 3.76 3.36 2.97 2.66 2.17 2.09 2.18 2.29 2.42 2.54